Flag for U.S.A. Weather past 2 weeks in Lexington, North Carolina, U.S.A.

Now
80 °F

Sunny.


Feels Like: 80 °F
Forecast: 53 / 82 °F
Wind: 6 mph from Southeast

Location: Davidson County Airport

Current Time: May 24, 2015 at 3:59:06 PM

Latest Report: May 24, 2015 at 3:15 PM


Visibility: 10 mi

Pressure: 30.35 "Hg

Humidity: 39%

Dew point: 53 °F

Location of LexingtonLocation

Historic Weather in Lexington — Graph

°F

Lexington temperature yesterday

Maximum temperature yesterday: 78 °F (at 4:35 PM)
Minimum temperature yesterday: 46 °F (at 5:15 AM)
Average temperature yesterday: 64 °F

Past Weeks' High & Low Weather Summary

 TemperatureHumidityPressure
High87 °F (May 11, 4:35 PM)99% (May 11, 6:55 AM)30.44 "Hg (May 11, 6:55 AM)
Low46 °F (May 23, 5:15 AM)26% (May 22, 4:55 PM)29.83 "Hg (May 21, 5:15 PM)
Average69 °F69%30.16 "Hg
* Reported May 9 2:15 PM — May 24 2:35 PM, Lexington, Weather by CustomWeather, © 2015

Note: Actual official high and low records may vary slightly from our data, if they occured in-between our weather recording intervals... More about our weather records

Advertising

Lexington weather history for previous 24 hours

 ConditionsComfort  
Time TempWeatherWind HumidityBarometerVisibility
2:35 PM
Sun, May 24
77 °FScattered clouds.5 mph43%30.36 "Hg10 mi
2:15 PM79 °FScattered clouds.5 mph41%30.37 "Hg10 mi
1:55 PM79 °FScattered clouds.5 mph42%30.37 "Hg10 mi
1:35 PM78 °FScattered clouds.5 mph44%30.38 "Hg10 mi
1:15 PM78 °FSunny.7 mph44%30.38 "Hg10 mi
12:55 PM77 °FSunny.6 mph44%30.39 "Hg10 mi
12:35 PM76 °FSunny.7 mph43%30.39 "Hg10 mi
12:15 PM75 °FSunny.3 mph45%30.40 "Hg10 mi
11:55 AM75 °FSunny.5 mph44%30.40 "Hg10 mi
11:35 AM75 °FSunny.6 mph46%30.40 "Hg10 mi
11:15 AM73 °FScattered clouds.3 mph53%30.41 "Hg10 mi
10:55 AM72 °FScattered clouds.No wind56%30.42 "Hg10 mi
10:35 AM71 °FSunny.3 mph59%30.42 "Hg10 mi
10:15 AM70 °FSunny.6 mph62%30.43 "Hg10 mi
9:55 AM69 °FSunny.No wind66%30.43 "Hg10 mi
9:35 AM67 °FSunny.No wind70%30.44 "Hg10 mi
9:15 AM66 °FSunny.No wind73%30.43 "Hg10 mi
8:55 AM65 °FSunny.3 mph75%30.43 "Hg10 mi
8:35 AM63 °FSunny.No wind75%30.43 "Hg10 mi
8:15 AM61 °FSunny.No wind76%30.43 "Hg10 mi
7:55 AM58 °FSunny.No wind83%30.42 "Hg10 mi
7:35 AM56 °FSunny.No wind88%30.43 "Hg10 mi
7:15 AM53 °FSunny.No wind93%30.43 "Hg10 mi
6:55 AM52 °FClear.No wind95%30.42 "Hg10 mi
6:35 AM51 °FClear.No wind95%30.41 "Hg10 mi
6:15 AM52 °FClear.No wind94%30.40 "Hg10 mi
5:55 AM53 °FClear.No wind91%30.39 "Hg10 mi
5:35 AM54 °FClear.No wind89%30.38 "Hg10 mi
5:15 AM53 °FClear.No wind88%30.39 "Hg10 mi
4:55 AM53 °FClear.No wind90%30.38 "Hg10 mi
4:15 AM55 °FClear.No wind82%30.38 "Hg10 mi
3:55 AM54 °FClear.No wind84%30.38 "Hg10 mi
3:35 AM55 °FClear.No wind82%30.37 "Hg10 mi
3:15 AM55 °FClear.No wind82%30.37 "Hg10 mi
2:55 AM56 °FClear.No wind78%30.37 "Hg10 mi
2:35 AM57 °FClear.No wind76%30.37 "Hg10 mi
2:15 AM57 °FClear.No wind74%30.37 "Hg10 mi
1:55 AM58 °FClear.No wind72%30.37 "Hg10 mi
1:35 AM57 °FClear.No wind75%30.37 "Hg10 mi
1:15 AM60 °FClear.No wind65%30.37 "Hg10 mi
12:55 AM60 °FClear.No wind65%30.37 "Hg10 mi
12:35 AM58 °FClear.No wind71%30.37 "Hg10 mi
12:15 AM60 °FClear.No wind68%30.37 "Hg10 mi
11:55 PM
Sat, May 23
60 °FClear.No wind69%30.37 "Hg10 mi
11:15 PM62 °FClear.No wind62%30.37 "Hg10 mi
10:55 PM64 °FClear.No wind60%30.36 "Hg10 mi
10:35 PM65 °FClear.No wind57%30.37 "Hg10 mi
10:15 PM65 °FClear.No wind58%30.36 "Hg10 mi
9:55 PM65 °FClear.No wind57%30.36 "Hg10 mi
9:15 PM66 °FSunny.No wind55%30.36 "Hg10 mi
8:55 PM66 °FSunny.No wind55%30.36 "Hg10 mi
8:35 PM68 °FSunny.No wind51%30.35 "Hg10 mi
8:15 PM69 °FSunny.No wind49%30.35 "Hg10 mi
7:55 PM69 °FSunny.No wind47%30.35 "Hg10 mi
7:35 PM73 °FSunny.No wind42%30.36 "Hg10 mi
7:15 PM76 °FSunny.3 mph35%30.35 "Hg10 mi
6:55 PM76 °FSunny.No wind34%30.35 "Hg10 mi
6:35 PM77 °FSunny.5 mph34%30.35 "Hg10 mi
6:15 PM78 °FSunny.No wind31%30.36 "Hg10 mi
5:55 PM78 °FSunny.No wind33%30.36 "Hg10 mi
5:15 PM78 °FPartly sunny.5 mph33%30.36 "Hg10 mi
4:55 PM78 °FScattered clouds.No wind33%30.37 "Hg10 mi
4:35 PM78 °FSunny.3 mph34%30.38 "Hg10 mi
4:15 PM77 °FScattered clouds.No wind33%30.38 "Hg10 mi
3:55 PM78 °FSunny.6 mph34%30.38 "Hg10 mi
3:35 PM78 °FSunny.5 mph34%30.39 "Hg10 mi
3:15 PM77 °FScattered clouds.5 mph34%30.39 "Hg10 mi
Weather by CustomWeather, © 2015

See weather overviewHow to use our weather pages